STARLINK-1543 (46053 NORAD) Tracking and Keplerian Element Data

This shows tracking and keplerian element data for the satellite.

Feedback or suggestion? Click here.




ElementValue
Catalog46053
NameSTARLINK-1543
Epoch Orbit1933
Epoch Day338.61937118
Epoch Year2020
RAAN105.1052
Inclination53.0199
Eccentricity0.00015
Argument of Perigee104.0338
Mean Anonmoly256.0818
Mean Motion15.06414533
Decay Rate1.42E-06
L11 46053U 20055AC 20338.61937118 .00000142 00000-0 28434-4 0 9994
L22 46053 53.0199 105.1052 0001500 104.0338 256.0818 15.06414533 19334

Live tracking and technical data element details for STARLINK-1543 (NORAD 46053). STARLINK-1543 can be tracked NOW for your location showing map with azimuth and elevation plus other details from your city location.

Track the satellite on the map from your city or location and see movement details for azimuth, elevation, latitude, longitude, range, height, and movement on the map or in text.







IsCatalogInMostPopularTable: catalog: 46053, numindb: 23
Update: records affected: 1



GetName: 46053 STARLINK-1543

Hit Count: updated at: Sun, 06 Dec 2020 01:02:20 GMT